Volver al catálogo

SL-16 DEB

ActivoLEO
NORAD 22347·DEBRIS·🇷🇺 Russia

Lanzado Dec 25, 1992 desde Baikonur Cosmodrome

Loading…

Próximos Pases (próximas 24 horas)

TLE

ActualizadoSource: Space-Track

Época: Sep 14, 2026, 10:07 UTC

1 22347U 92093AL  26257.42164826  .00002204  00000-0  11921-2 0  9990
2 22347  70.8337 255.0546 0157841 253.9903 271.2163 14.07520636702692

Sigue SL-16 DEB en tiempo real con AllMySat

Download on the App Store